FW8702 Weather Reports


time (UTC)temp
C
wind
direction
speed
KPH
gust
KPH
rain 1hr
cm
rain 24hr
cm
rain mn
cm
humidity
%
barometer
mb
20220629033042 18 5 0.0 6.4 0.00 0.36 0.00 88 1013.2
20220629031604 18 5 0.0 3.2 0.00 0.36 0.00 87 1013.3
20220629030014 18 5 0.0 6.4 0.00 0.36 0.00 86 1013.3
20220629024548 18 9 3.2 8.0 0.00 0.36 0.00 87 1013.4
20220629024518 18 9 1.6 8.0 0.00 0.36 0.00 87 1013.4
20220629023025 18 5 6.4 9.7 0.00 0.36 0.00 88 1013.5
20220629021552 19 5 0.0 8.0 0.00 0.36 0.00 87 1013.6
20220629020101 18 5 0.0 4.8 0.00 0.36 0.00 88 1013.7
20220629014529 18 5 1.6 4.8 0.00 0.36 0.00 88 1014.0
20220629013050 18 5 0.0 3.2 0.00 0.36 0.00 88 1014.0
20220629011503 18 5 0.0 3.2 0.00 0.36 0.00 88 1014.0
20220629010055 18 5 0.0 3.2 0.00 0.36 0.00 88 1014.1
20220629004544 18 5 0.0 14.5 0.00 0.36 0.00 87 1014.2
20220629003040 19 315 1.6 6.4 0.00 0.36 0.00 87 1014.4
20220629001510 19 26 3.2 8.0 0.00 0.36 0.00 85 1014.6
20220629000048 20 5 4.8 9.7 0.00 0.36 0.00 83 1014.9
20220628234534 21 123 0.0 4.8 0.00 0.36 0.00 78 1015.0
20220628233010 21 123 0.0 6.4 0.00 0.36 0.00 76 1015.1
20220628231502 22 125 3.2 8.0 0.00 0.36 0.00 74 1015.0
20220628230015 22 105 6.4 11.3 0.00 0.36 0.00 73 1014.8
20220628224550 22 101 4.8 12.9 0.00 0.36 0.00 73 1014.7
20220628223006 22 59 9.7 19.3 0.00 0.36 0.00 73 1014.0
20220628221623 22 30 6.4 17.7 0.00 0.36 0.00 72 1013.8
20220628220047 22 333 4.8 14.5 0.00 0.36 0.00 73 1014.1
20220628214547 21 360 4.8 17.7 0.00 0.36 0.36 74 1013.7
20220628213058 21 355 4.8 9.7 0.00 0.36 0.36 75 1013.6
20220628211511 21 9 6.4 11.3 0.00 0.36 0.36 75 1013.7
20220628210040 22 360 8.0 12.9 0.00 0.36 0.36 73 1013.8
20220628204539 22 360 4.8 14.5 0.00 0.36 0.36 74 1013.6
20220628203046 22 355 1.6 9.7 0.00 0.36 0.36 75 1013.7
20220628201518 22 355 0.0 9.7 0.00 0.36 0.36 72 1013.9
20220628200051 22 332 3.2 8.0 0.00 0.36 0.36 71 1013.9
20220628194546 23 53 6.4 17.7 0.00 0.36 0.36 69 1013.6
20220628193056 23 39 9.7 17.7 0.00 0.36 0.36 69 1013.5
20220628191535 23 29 8.0 17.7 0.00 0.36 0.36 68 1013.4
20220628190048 22 56 8.0 16.1 0.00 0.36 0.36 68 1013.3
20220628184551 22 44 1.6 4.8 0.00 0.36 0.36 74 1013.3
20220628183016 23 44 3.2 6.4 0.00 0.36 0.36 71 1013.3
20220628181553 23 53 6.4 16.1 0.00 0.36 0.36 66 1013.3
20220628180011 23 46 6.4 16.1 0.00 0.36 0.36 66 1013.4
20220628174552 23 57 4.8 9.7 0.00 0.36 0.36 68 1013.5
20220628173047 23 13 6.4 11.3 0.00 0.36 0.36 70 1013.6
20220628173017 23 10 6.4 11.3 0.00 0.36 0.36 70 1013.6
20220628171515 23 5 3.2 9.7 0.00 0.36 0.36 68 1013.7
20220628170058 24 30 4.8 14.5 0.00 0.36 0.36 67 1013.6
20220628164541 24 330 4.8 16.1 0.00 0.36 0.36 66 1013.7
20220628163017 24 332 6.4 14.5 0.00 0.36 0.36 67 1014.0
20220628161553 24 348 3.2 14.5 0.00 0.36 0.36 67 1014.3
20220628160045 25 345 6.4 16.1 0.00 0.36 0.36 68 1014.3
20220628154526 25 334 4.8 16.1 0.00 0.36 0.36 65 1014.4
20220628153042 24 348 9.7 24.1 0.00 0.36 0.36 67 1014.7
20220628151513 24 292 4.8 14.5 0.00 0.36 0.36 71 1014.9
20220628150007 24 307 8.0 25.7 0.00 0.36 0.36 71 1015.1
20220628144517 23 14 6.4 12.9 0.00 0.36 0.36 74 1014.9
20220628143018 23 5 6.4 17.7 0.00 0.36 0.36 74 1015.2
20220628141512 23 291 6.4 17.7 0.00 0.36 0.36 75 1015.6
20220628140014 23 326 6.4 19.3 0.00 0.36 0.36 75 1015.6
20220628134502 22 38 4.8 9.7 0.00 0.36 0.36 78 1015.7
20220628133036 23 20 6.4 14.5 0.00 0.36 0.36 80 1015.9
20220628131548 23 109 1.6 6.4 0.00 0.36 0.36 77 1016.3
20220628130053 23 109 1.6 9.7 0.00 0.36 0.36 75 1016.5
20220628124547 23 5 1.6 17.7 0.00 0.36 0.36 78 1016.0
20220628123146 23 23 9.7 16.1 0.00 0.36 0.36 78 1016.1
20220628121544 22 44 1.6 6.4 0.00 0.36 0.36 77 1016.1
20220628120052 22 53 9.7 22.5 0.00 0.36 0.36 78 1016.1
20220628114542 22 9 12.9 24.1 0.00 0.36 0.36 78 1016.1
20220628113042 21 68 11.3 22.5 0.00 0.36 0.36 81 1016.3
20220628111540 21 39 11.3 24.1 0.00 0.36 0.36 82 1016.6
20220628110114 21 45 12.9 25.7 0.03 0.36 0.36 82 1016.7
20220628104542 21 60 12.9 20.9 0.03 0.36 0.36 80 1016.5
20220628103136 21 360 1.6 6.4 0.03 0.36 0.36 84 1016.5
20220628101539 21 78 11.3 20.9 0.03 0.36 0.36 77 1016.5
20220628100037 22 29 4.8 16.1 0.00 0.33 0.33 76 1016.5
20220628094532 22 103 9.7 16.1 0.00 0.33 0.33 77 1015.5
20220628093035 22 22 8.0 16.1 0.00 0.33 0.33 81 1014.9
20220628091504 22 289 1.6 6.4 0.00 0.33 0.33 82 1015.4
20220628090048 22 289 0.0 12.9 0.00 0.33 0.33 85 1015.5
20220628084608 22 325 1.6 6.4 0.00 0.33 0.33 84 1016.0
20220628083103 22 344 1.6 9.7 0.00 0.33 0.33 84 1016.3
20220628081507 21 303 3.2 8.0 0.00 0.33 0.33 87 1016.0
20220628080011 21 312 6.4 14.5 0.00 0.33 0.33 86 1015.7
20220628074548 21 17 11.3 22.5 0.00 0.33 0.33 84 1015.5
20220628073055 21 315 6.4 22.5 0.03 0.33 0.33 85 1016.6
20220628071554 22 246 1.6 6.4 0.05 0.33 0.33 86 1014.5
20220628070051 22 310 0.0 6.4 0.33 0.33 0.33 89 1014.3
20220628064558 21 310 1.6 8.0 0.33 0.33 0.33 88 1014.4
20220628063037 21 360 0.0 9.7 0.30 0.30 0.30 87 1014.8
20220628061542 22 330 11.3 19.3 0.28 0.28 0.28 83 1014.6
20220628060038 23 302 0.0 6.4 0.00 0.00 0.00 77 1015.0
20220628054545 23 40 3.2 8.0 0.00 0.00 0.00 75 1014.3
20220628053043 23 57 3.2 11.3 0.00 0.00 0.00 77 1014.7
20220628051558 23 39 1.6 6.4 0.00 0.00 0.00 76 1015.0
20220628050051 23 300 0.0 9.7 0.00 0.00 0.00 74 1014.8
20220628044536 23 325 0.0 14.5 0.00 0.00 0.00 74 1014.7
20220628043103 23 355 3.2 17.7 0.00 0.00 0.00 74 1014.7
20220628041551 22 351 1.6 6.4 0.00 0.00 0.00 77 1014.8
20220628040045 22 305 1.6 4.8 0.00 0.00 0.00 76 1014.6
20220628034536 22 305 3.2 6.4 0.00 0.00 0.00 76 1014.6